Tracking 19794 objects as of 22-Jul-2019
HD Live streaming from Space Station
objects crossing your sky now

FLOCK 3P 70

Track FLOCK 3P 70 now!
10-day predictions
FLOCK 3P 70 is classified as:


NORAD ID: 41980
Int'l Code: 2017-008AJ
Perigee: 490.4 km
Apogee: 502.4 km
Inclination: 97.4 °
Period: 94.4 minutes
Semi major axis: 6867 km
RCS: Unknown
Launch date: February 15, 2017
Source: United States (US)
Launch site: SRIHARIKOTA (SRI)
aabbcc
Your satellite tracking list
Your tracking list is empty




NASA's NSSDC Master Catalog

Two Line Element Set (TLE):
1 41980U 17008AJ  19203.67195630  .00001003  00000-0  42417-4 0  9996
2 41980  97.4076 270.6431 0008757  36.5000 323.6834 15.25499771134974
Source of the keplerian elements: AFSPC